User: anonymous   Login
Location: Vale
(35.4830°N, 81.3830°W)
Time: 22:30:59
(UTC-05:00)
Language:

Cosmos 2237 Rocket - Orbit

View from above orbital plane
View from above orbital plane
View from above satellite
View from above satellite

Ground track
Ground track

The orbit data is extracted from the following two-line orbital elements,

1 22566U 93016B   18048.58873724 +.00000184 +00000-0 +11941-3 0  9997
2 22566 071.0056 271.8069 0008704 128.2426 231.9482 14.14953477285974
Epoch (UTC): 17 February 2018 14:07:46
Eccentricity: 0.0008704
inclination: 71.0056°
perigee height: 836 km
apogee height: 849 km
right ascension of ascending node: 271.8069°
argument of perigee: 128.2426°
revolutions per day: 14.14953477
mean anomaly at epoch: 231.9482°
orbit number at epoch: 28597

The dashed part of the orbit path shows where the satellite is in the earth's shadow,  

DLR